Meath Environmental Platform

Observations

Time Sensor AQI SAQ Temp °C Hum % Pres Pa CO μg/m³ H₂S μg/m³ NO μg/m³ NO₂ μg/m³ O₃ μg/m³ SO₂ μg/m³ CO₂e PPM VOC PPM PM1 μg/m³ PM2.5 μg/m³ PM4 μg/m³ PM10 μg/m³ TPS µm
Tuesday 11 August 2026
02:08 Trim Patrick St 1 12.5 74 38,460 0.28 5.39 3.89 33.17 10.25 0 2.86 7.02 7.73
02:06 Trim Market St 2 14.2 66 57,398 0.27 0 2.49 13.51 39.09 0 1.43 2.76 4.27
02:06 Trim Patrick St 1 12.5 74 38,460 0.28 5.21 3.88 31.79 9.91 0 2.86 6.32 6.96
02:05 Trim Market St 2 14.2 66 57,413 0.27 0 2.48 14.58 37.3 0 1.43 2.76 4.27
02:05 Trim Patrick St 1 12.5 74 38,460 0.28 5.13 3.88 29.52 11.18 0 2.86 6.32 6.96
02:04 Trim Market St 2 14.2 66 57,428 0.27 0 2.61 14.05 37.97 0 0.71 3.75 8.18
02:04 Trim Patrick St 1 12.5 74 38,460 0.28 5.21 3.88 30.42 11.9 0 2.86 7.04 7.75
02:03 Trim Market St 2 14.2 66 57,443 0.27 0 2.26 14.3 36.58 0 1.43 3.75 6.22
02:02 Trim Market St 2 14.3 66 57,457 0.27 0 2.05 14.73 36.88 0 1.43 3.27 5.57
02:02 Trim Patrick St 1 12.6 74 38,460 0.27 5.27 3.85 30.33 11.81 0 3.71 7.77 8.55
02:01 Trim Market St 2 14.2 66 57,470 0.27 0 2.02 14.02 35.58 0 1.43 3.27 4.92
02:01 Trim Patrick St 1 12.6 74 38,460 0.27 5.34 3.85 32.14 9.58 0 4.57 8.49 9.33
02:00 Trim Market St 2 14.3 66 57,485 0.27 0 2.5 15.69 35.09 0 1.43 2.28 4.92
02:00 Trim Patrick St 1 12.6 74 38,460 0.28 5.14 3.85 30.77 11.12 0 2 5.64 6.2
01:59 Trim Market St 2 14.3 65 57,496 0.27 0 2.61 15.32 35.78 0 1.43 3.76 5.57
01:58 Trim Market St 2 14.3 65 57,508 0.28 0 3.05 13.89 35.06 0 1.43 3.28 4.91
01:58 Trim Patrick St 1 12.6 74 38,460 0.28 4.96 3.85 30.76 10.77 0 3.71 7.07 7.78
01:57 Trim Market St 2 14.3 65 57,519 0.28 0 3.01 14.16 31.5 0 2.14 2.78 4.26
01:57 Trim Patrick St 1 12.6 74 38,460 0.28 4.52 3.81 28.94 12.13 0 2.86 6.36 6.99
01:56 Trim Market St 2 14.3 65 57,527 0.28 0 3.2 14.15 34.11 0 1.43 4.27 7.53